GW5909 Weather Reports


time (UTC)temp
F
wind
direction
speed
knots
gust
knots
rain 1hr
in
rain 24hr
in
rain mn
in
humidity
%
barometer
mb
20260505140405 69 225 0.0 2.6 0.00 0.16 0.00 64 1008.1
20260505124406 65 198 1.7 7.8 0.00 0.19 0.00 67 1009.1
20260505123906 64 203 0.9 6.1 0.00 0.19 0.00 68 1008.9
20260505122405 64 218 0.0 4.3 0.00 0.20 0.00 68 1008.7
20260505121905 63 200 1.7 4.3 0.00 0.20 0.00 68 1008.5
20260505121405 63 224 0.9 4.3 0.00 0.22 0.00 68 1008.8
20260505120906 63 242 0.9 2.6 0.00 0.22 0.00 68 1008.8
20260505115905 62 310 0.0 0.0 0.00 0.22 0.00 68 1008.7
20260505115405 62 310 0.0 0.0 0.00 0.22 0.00 68 1008.7
20260505114905 62 310 0.0 0.0 0.00 0.22 0.00 68 1008.9
20260505114405 62 310 0.0 0.0 0.00 0.22 0.00 68 1009.1
20260505113906 61 309 0.0 0.0 0.00 0.22 0.00 68 1008.9
20260505112905 61 309 0.0 1.7 0.00 0.22 0.00 67 1009.1
20260505112406 61 284 0.0 0.9 0.00 0.22 0.00 67 1009.3
20260505111905 61 267 0.0 0.0 0.00 0.22 0.00 67 1009.5
20260505111406 61 267 0.0 1.7 0.00 0.22 0.00 67 1009.1
20260505110905 61 277 0.0 1.7 0.00 0.22 0.00 67 1009.0
20260505110406 61 281 0.9 2.6 0.00 0.22 0.00 67 1009.1
20260505101405 61 223 0.0 1.7 0.00 0.23 0.00 66 1008.0
20260505100905 61 300 0.0 0.9 0.00 0.23 0.00 66 1007.8
20260505095405 61 224 0.9 5.2 0.00 0.25 0.00 66 1007.7
20260505094905 61 218 0.9 7.8 0.00 0.25 0.00 66 1007.3
20260505093405 61 198 0.9 6.1 0.00 0.26 0.00 65 1007.5
20260505092906 61 240 0.9 4.3 0.00 0.26 0.00 65 1007.4
20260505092405 61 217 0.9 5.2 0.00 0.26 0.00 65 1007.2
20260505091905 61 213 0.9 5.2 0.00 0.26 0.00 65 1007.3
20260505091405 61 237 0.9 4.3 0.00 0.27 0.00 64 1007.3
20260505090905 62 208 0.9 4.3 0.00 0.27 0.00 64 1007.2
20260505090405 62 258 0.0 5.2 0.00 0.31 0.00 64 1007.2
20260505085905 62 234 0.0 2.6 0.00 0.31 0.00 64 1007.4
20260505084905 62 233 0.9 4.3 0.00 0.31 0.00 64 1007.1
20260505084405 62 199 0.9 2.6 0.00 0.31 0.00 64 1007.0
20260505083406 62 119 0.9 4.3 0.00 0.31 0.00 63 1006.7
20260505082905 62 252 0.9 5.2 0.00 0.31 0.00 63 1006.9
20260505082405 63 199 0.0 7.0 0.00 0.31 0.00 63 1006.9
20260505081905 63 212 0.0 6.1 0.00 0.31 0.00 63 1006.7
20260505081405 63 204 0.9 7.8 0.00 0.31 0.00 63 1006.6
20260505080905 63 205 1.7 7.0 0.00 0.31 0.00 63 1006.3
20260505075904 63 199 4.3 10.4 0.00 0.31 0.00 63 1006.3
20260505075405 63 225 0.9 5.2 0.00 0.31 0.00 63 1006.4
20260505074905 63 205 1.7 7.0 0.00 0.31 0.00 63 1006.5
20260505074405 63 202 1.7 11.3 0.00 0.31 0.00 63 1006.5
20260505073905 64 241 0.9 7.8 0.00 0.31 0.00 63 1006.5
20260505072905 63 184 1.7 6.1 0.00 0.31 0.00 63 1006.5
20260505072405 63 231 0.0 4.3 0.00 0.31 0.00 63 1006.3
20260505071905 63 184 0.0 5.2 0.00 0.31 0.00 63 1006.2
20260505071405 63 219 1.7 7.0 0.00 0.31 0.00 64 1006.2
20260505070905 63 212 0.9 5.2 0.00 0.31 0.00 64 1006.3
20260505070405 63 232 1.7 11.3 0.00 0.31 0.00 64 1006.0
20260505065905 63 209 0.9 6.1 0.00 0.31 0.00 64 1006.5
20260505064905 63 205 1.7 6.1 0.00 0.31 0.00 64 1006.3
20260505063905 63 219 1.7 7.0 0.00 0.31 0.00 64 1006.4
20260505063405 63 207 2.6 7.8 0.00 0.31 0.00 64 1006.3
20260505062905 63 199 2.6 13.0 0.00 0.31 0.00 64 1006.3
20260505061905 63 193 1.7 10.4 0.00 0.31 0.00 64 1006.5
20260505061405 63 196 1.7 7.8 0.00 0.31 0.00 64 1006.6
20260505060904 63 196 1.7 7.8 0.00 0.31 0.00 64 1006.6
20260505060404 63 236 0.9 8.7 0.00 0.31 0.00 64 1006.4
20260505055904 63 198 2.6 11.3 0.00 0.31 0.00 63 1006.5
20260505055405 63 201 0.9 8.7 0.00 0.31 0.00 63 1006.4
20260505054905 63 208 0.0 6.1 0.00 0.31 0.00 63 1006.5
20260505054405 63 234 1.7 11.3 0.00 0.31 0.00 63 1006.5
20260505053905 63 191 4.3 10.4 0.00 0.31 0.00 63 1006.2
20260505053405 63 185 2.6 10.4 0.00 0.31 0.00 63 1006.2
20260505052404 63 214 2.6 8.7 0.00 0.31 0.00 63 1006.5
20260505051905 63 195 1.7 7.0 0.00 0.31 0.00 63 1006.4
20260505051405 63 203 1.7 10.4 0.00 0.31 0.00 63 1006.5
20260505050905 63 217 2.6 10.4 0.00 0.31 0.00 63 1006.8
20260505050405 63 170 1.7 7.0 0.00 0.31 0.00 63 1006.7
20260505041405 64 204 0.0 1.7 0.00 0.31 0.16 63 1006.4
20260505040904 64 224 0.0 2.6 0.00 0.31 0.16 63 1006.6
20260505040405 64 204 0.9 2.6 0.00 0.31 0.16 63 1006.6
20260505035904 64 215 0.0 0.9 0.00 0.16 0.16 63 1006.5
20260505035405 64 215 0.0 1.7 0.00 0.16 0.16 62 1006.5
20260505034405 64 231 0.0 4.3 0.00 0.16 0.16 63 1006.5
20260505033905 64 215 0.9 4.3 0.00 0.16 0.16 62 1006.4
20260505032905 64 214 0.0 0.0 0.00 0.16 0.16 62 1006.5
20260505032404 64 149 0.0 1.7 0.00 0.16 0.16 62 1006.4
20260505031905 64 168 0.0 0.9 0.00 0.16 0.16 62 1006.5
20260505031404 64 214 0.0 1.7 0.00 0.16 0.16 61 1006.2
20260505030905 65 206 0.0 0.9 0.00 0.16 0.16 61 1006.3
20260505030404 65 217 0.0 0.9 0.00 0.16 0.16 61 1006.1
20260505025905 65 207 0.0 1.7 0.00 0.16 0.16 61 1006.1
20260505025404 65 225 0.9 6.1 0.00 0.16 0.16 61 1006.0
20260505024405 65 229 0.0 0.9 0.00 0.16 0.16 61 1005.9
20260505023904 65 208 0.0 0.9 0.00 0.16 0.16 61 1005.6
20260505023404 65 209 0.0 2.6 0.00 0.16 0.16 61 1005.8
20260505022904 65 184 0.9 2.6 0.00 0.16 0.16 60 1005.7
20260505022404 65 207 0.0 0.0 0.00 0.16 0.16 60 1005.4
20260505021904 65 217 0.0 1.7 0.00 0.16 0.16 60 1005.2
20260505021405 65 178 0.9 2.6 0.00 0.16 0.16 59 1005.0
20260505020404 66 188 0.9 5.2 0.00 0.16 0.16 58 1004.8
20260505015905 66 205 0.0 4.3 0.00 0.16 0.16 58 1005.0
20260505015404 67 195 0.9 2.6 0.00 0.16 0.16 58 1004.7
20260505014905 67 216 0.0 0.9 0.00 0.16 0.16 58 1004.8
20260505013905 67 216 0.0 7.8 0.00 0.16 0.16 58 1004.6
20260505013405 67 208 0.9 2.6 0.00 0.16 0.16 57 1004.5
20260505012905 67 214 0.9 4.3 0.00 0.16 0.16 56 1004.7
20260505012405 68 230 0.0 0.0 0.00 0.16 0.16 56 1004.6
20260505011904 68 202 0.0 0.0 0.00 0.16 0.16 55 1004.7
20260505010904 69 193 0.0 1.7 0.00 0.16 0.16 55 1004.6
20260505010404 69 187 0.9 2.6 0.00 0.16 0.16 55 1004.7
20260505005904 69 203 0.0 1.7 0.00 0.16 0.16 54 1004.3
20260505005404 70 227 0.0 2.6 0.00 0.16 0.16 54 1004.6
20260505004906 70 200 0.0 2.6 0.00 0.16 0.16 53 1004.4
20260505004404 71 214 0.0 1.7 0.00 0.16 0.16 53 1004.2
20260505003904 71 205 0.0 5.2 0.00 0.16 0.16 52 1004.1
20260505003404 71 201 0.0 1.7 0.00 0.16 0.16 52 1003.9
20260505002905 72 224 0.0 2.6 0.00 0.16 0.16 52 1004.4
20260505002405 72 206 0.0 4.3 0.00 0.16 0.16 51 1004.1
20260505001904 73 196 0.9 7.0 0.00 0.16 0.16 51 1004.1
20260505001404 73 183 1.7 6.1 0.00 0.16 0.16 50 1004.2
20260505000904 74 194 0.9 4.3 0.00 0.16 0.16 50 1003.9
20260505000406 74 210 0.9 5.2 0.00 0.16 0.16 50 1004.3
20260504235905 75 217 0.0 1.7 0.00 0.16 0.16 49 1004.2
20260504235404 76 185 0.9 8.7 0.00 0.16 0.16 49 1004.3
20260504234904 76 242 0.9 7.0 0.00 0.16 0.16 49 1004.0
20260504234404 76 187 3.5 11.3 0.00 0.16 0.16 49 1004.4
20260504233904 76 220 0.0 4.3 0.00 0.16 0.16 49 1004.6
20260504233404 76 226 0.9 6.1 0.00 0.16 0.16 49 1004.5
20260504232904 76 189 1.7 5.2 0.00 0.16 0.16 49 1004.7
20260504232404 76 189 1.7 7.8 0.00 0.16 0.16 48 1004.8
20260504231904 77 297 0.9 5.2 0.00 0.16 0.16 48 1005.0
20260504231404 78 211 0.9 7.0 0.00 0.16 0.16 48 1004.9
20260504225404 79 220 0.9 5.2 0.00 0.16 0.16 47 1005.1
20260504224905 79 214 0.9 5.2 0.00 0.16 0.16 47 1005.0
20260504223405 80 188 0.9 7.0 0.00 0.16 0.16 48 1005.1
20260504222904 79 208 0.0 4.3 0.00 0.16 0.16 47 1005.0
20260504222404 79 198 0.9 4.3 0.00 0.16 0.16 47 1005.2
20260504221905 79 208 1.7 5.2 0.00 0.16 0.16 47 1005.0
20260504221404 79 168 2.6 7.8 0.00 0.16 0.16 47 1005.2
20260504220904 79 25 1.7 7.0 0.00 0.16 0.16 46 1005.2
20260504215904 79 200 0.9 7.8 0.00 0.16 0.16 46 1005.2
20260504214904 80 203 0.9 8.7 0.00 0.16 0.16 46 1005.3
20260504214404 81 237 0.9 4.3 0.00 0.16 0.16 46 1005.4
20260504213904 81 172 1.7 11.3 0.00 0.16 0.16 46 1005.2
20260504213404 81 279 0.9 4.3 0.00 0.16 0.16 46 1005.4
20260504212904 82 22 0.9 5.2 0.00 0.16 0.16 47 1005.1
20260504212404 82 172 0.0 12.2 0.00 0.16 0.16 47 1005.2
20260504210404 81 205 2.6 12.2 0.00 0.16 0.16 48 1005.3
20260504205904 81 226 0.9 7.0 0.00 0.16 0.16 48 1005.3
20260504205404 81 244 0.9 5.2 0.00 0.16 0.16 48 1005.1
20260504204904 81 185 1.7 6.1 0.00 0.16 0.16 47 1005.2
20260504204404 81 221 1.7 7.0 0.00 0.16 0.16 47 1005.2
20260504203904 81 323 0.0 5.2 0.00 0.16 0.16 48 1005.1
20260504203404 81 190 2.6 13.9 0.00 0.16 0.16 48 1005.1
20260504202903 81 221 0.9 7.8 0.00 0.16 0.16 48 1005.1
20260504202404 81 142 0.9 6.1 0.00 0.16 0.16 49 1005.6
20260504201904 81 195 1.7 6.1 0.00 0.16 0.16 49 1005.4
20260504200904 81 255 0.9 8.7 0.00 0.16 0.16 49 1005.6
20260504195404 81 216 1.7 11.3 0.00 0.16 0.16 50 1005.7
20260504194404 80 267 0.9 10.4 0.00 0.16 0.16 51 1005.9
20260504193904 81 18 1.7 7.0 0.00 0.16 0.16 51 1006.1
20260504193404 80 19 0.9 8.7 0.00 0.16 0.16 51 1006.1
20260504192904 80 355 0.9 10.4 0.00 0.16 0.16 52 1006.3
20260504192404 80 199 0.9 5.2 0.00 0.16 0.16 52 1006.4
20260504191904 80 309 0.9 2.6 0.00 0.16 0.16 52 1006.4
20260504191404 80 253 0.9 4.3 0.00 0.16 0.16 52 1006.4
20260504190404 80 134 0.0 5.2 0.00 0.16 0.16 53 1006.5
20260504185904 80 225 0.9 6.1 0.00 0.16 0.16 54 1006.7
20260504185403 79 237 0.0 5.2 0.00 0.16 0.16 54 1006.9
20260504184904 79 209 0.0 5.2 0.00 0.16 0.16 54 1006.7
20260504184404 79 221 1.7 4.3 0.00 0.16 0.16 54 1006.8
20260504183904 80 38 0.9 1.7 0.00 0.16 0.16 54 1006.8
20260504183404 80 193 0.9 6.1 0.00 0.16 0.16 54 1006.8
20260504182904 80 320 0.9 6.1 0.00 0.16 0.16 55 1006.5
20260504182403 79 204 0.9 7.0 0.00 0.16 0.16 55 1006.8
20260504181904 79 231 0.9 7.0 0.00 0.16 0.16 55 1006.6
20260504181403 79 232 2.6 10.4 0.00 0.16 0.16 56 1006.8
20260504180903 79 188 4.3 11.3 0.00 0.16 0.16 56 1006.7
20260504180404 79 195 2.6 13.0 0.00 0.16 0.16 56 1006.8
20260504175904 79 194 0.9 8.7 0.00 0.16 0.16 57 1006.8
20260504175404 78 163 0.9 10.4 0.00 0.16 0.16 57 1006.7
20260504174904 78 144 0.9 10.4 0.00 0.16 0.16 57 1007.0
20260504174404 78 339 1.7 7.0 0.00 0.16 0.16 58 1006.7
20260504173904 78 171 1.7 8.7 0.00 0.16 0.16 58 1006.8
20260504173404 77 185 4.3 10.4 0.00 0.16 0.16 59 1007.2
20260504172903 77 188 0.9 4.3 0.00 0.16 0.16 59 1006.9
20260504172404 77 293 0.9 10.4 0.00 0.16 0.16 60 1007.2
20260504171904 76 188 2.6 11.3 0.00 0.16 0.16 60 1007.2
20260504171404 76 179 2.6 10.4 0.00 0.16 0.16 61 1007.5
20260504170903 75 181 2.6 13.9 0.00 0.16 0.16 61 1007.2
20260504170403 75 176 4.3 14.8 0.00 0.16 0.16 61 1007.3
20260504160406 71 187 2.6 8.7 0.00 0.16 0.16 72 1008.2
20260504150906 62 216 2.6 7.8 0.00 0.16 0.16 79 1009.0
20260504150406 61 212 0.9 11.3 0.00 0.16 0.16 79 1009.1